TimeCET,TemperatureF,Dew PointF,Humidity,Sea Level PressureIn,VisibilityMPH,Wind Direction,Wind SpeedMPH,Gust SpeedMPH,PrecipitationIn,Events,Conditions,WindDirDegrees,DateUTC
12:55 AM,26.6,17.6,69,29.68,6.2,North,5.8,-,N/A,,Mostly Cloudy,10,2013-01-13 23:55:00
1:55 AM,26.6,17.6,69,29.65,6.2,NNE,5.8,-,N/A,,Mostly Cloudy,20,2013-01-14 00:55:00
3:55 AM,24.8,19.4,80,29.62,6.2,NE,5.8,-,N/A,,Mostly Cloudy,40,2013-01-14 02:55:00
4:55 AM,26.6,21.2,80,29.62,6.2,NE,8.1,-,N/A,,Mostly Cloudy,50,2013-01-14 03:55:00
5:55 AM,26.6,21.2,80,29.62,6.2,ENE,6.9,-,N/A,,Mostly Cloudy,70,2013-01-14 04:55:00
6:55 AM,24.8,19.4,80,29.62,6.2,NE,6.9,-,N/A,,Partly Cloudy,40,2013-01-14 05:55:00
7:55 AM,24.8,19.4,80,29.62,6.2,NE,6.9,-,N/A,,Scattered Clouds,40,2013-01-14 06:55:00
8:55 AM,24.8,19.4,80,29.59,6.2,NNE,4.6,-,N/A,,Scattered Clouds,30,2013-01-14 07:55:00
9:55 AM,24.8,19.4,80,29.59,6.2,NNE,5.8,-,N/A,,Scattered Clouds,20,2013-01-14 08:55:00
10:55 AM,24.8,19.4,80,29.59,6.2,NNE,5.8,-,N/A,,Scattered Clouds,20,2013-01-14 09:55:00
11:55 AM,28.4,19.4,69,29.62,-9999.0,NNE,6.9,-,N/A,,Clear,30,2013-01-14 10:55:00
12:55 PM,30.2,19.4,64,29.62,-9999.0,NNE,6.9,-,N/A,,Clear,20,2013-01-14 11:55:00
1:55 PM,32.0,10.4,41,29.62,-9999.0,North,5.8,-,N/A,,Clear,360,2013-01-14 12:55:00
2:55 PM,30.2,15.8,55,29.62,-9999.0,NNE,5.8,-,N/A,,Clear,30,2013-01-14 13:55:00
3:55 PM,30.2,17.6,60,29.62,6.2,NNE,5.8,-,N/A,,Mostly Cloudy,30,2013-01-14 14:55:00
4:55 PM,28.4,14.0,55,29.62,6.2,NE,5.8,-,N/A,,Mostly Cloudy,40,2013-01-14 15:55:00
5:55 PM,28.4,15.8,59,29.62,6.2,NE,5.8,-,N/A,,Mostly Cloudy,40,2013-01-14 16:55:00
6:55 PM,26.6,17.6,69,29.62,6.2,NE,5.8,18.4,N/A,,Mostly Cloudy,40,2013-01-14 17:55:00
7:55 PM,26.6,19.4,74,29.65,6.2,North,2.3,-,N/A,,Mostly Cloudy,10,2013-01-14 18:55:00
8:55 PM,26.6,19.4,74,29.65,6.2,North,4.6,-,N/A,,Scattered Clouds,10,2013-01-14 19:55:00
10:55 PM,24.8,19.4,80,29.65,6.2,North,3.5,-,N/A,,Mostly Cloudy,10,2013-01-14 21:55:00
11:55 PM,24.8,19.4,80,29.65,-9999.0,North,3.5,-,N/A,,Clear,360,2013-01-14 22:55:00